[[{"header":{"parameterUnit":"m.s-1","parameterCategory":1,"la1":30.2991,"la2":30.254,"lo1":-89.0895,"lo2":-89.0444,"dy":0.0017,"dx":0.0017,"nx":28,"ny":28,"refTime":"2024-05-08T21:00:00:Z","depth":0,"parameterNumber":2,"parameterNumberName":"U-component_of_WINDS"},"data":[0,0,0,0,0,0,0,0,0,0,0,0,0,0,0,0,0,0,0,0,0,0,0,0,0,0,0,0,0,0,0,0,0,0,0,0,0,0,0,0,0,0,0,0,0,0,0,0,0,0,0,0,0,0,0,0,0,0,2.8926,2.8927,0,2.8993,2.8994,2.8995,2.8974,2.8972,2.8971,2.8969,2.9038,2.9041,2.9044,0,0,0,0,0,0,0,0,0,0,0,0,0,2.878,2.8783,2.8926,2.8927,2.8928,2.8993,2.8994,2.8995,2.8974,2.8972,2.897,2.8969,2.9037,2.9041,2.9044,0,0,0,0,0,0,0,0,0,0,0,0,0,2.8845,2.8784,2.8926,2.8925,2.8926,2.8993,2.8994,2.8995,2.8974,2.8972,2.897,2.8968,2.9036,2.904,2.9045,2.9117,0,0,2.9059,2.9061,0,0,0,0,0,0,0,0,2.8841,2.885,2.8925,2.8926,2.8926,2.8973,2.8968,2.9036,2.8975,2.8956,2.8969,2.8967,2.9018,2.9024,2.9041,2.912,2.9123,2.906,2.9063,2.9065,2.9066,0,0,0,0,0,0,0,2.8837,2.8847,2.8953,2.8926,2.8927,2.8922,2.8928,2.898,2.8998,2.8957,2.8956,2.8964,2.9018,2.9037,2.9043,2.9124,2.906,2.9064,2.9067,2.9069,2.9264,2.9266,0,0,0,0,0,0,2.8832,2.8844,2.8951,2.8955,2.8878,2.8926,2.8934,2.896,2.8998,2.9001,2.8966,2.8963,2.903,2.9037,2.9045,2.913,2.9065,2.9069,2.9072,2.9261,2.9264,2.9267,0,0,0,0,0,0,2.8829,2.8842,2.8948,2.8899,2.8912,2.8931,2.8961,2.8963,2.8981,2.9004,2.9007,2.8982,2.9028,2.9038,2.9099,2.9132,2.9071,2.9076,2.9258,2.9262,2.9265,2.9302,0,0,0,0,0,0,2.8825,2.8841,2.8868,2.89,2.8915,2.9001,2.8963,2.8965,2.8989,2.8986,2.902,2.9023,2.9028,2.9092,2.9103,2.9138,2.9079,2.9255,2.926,2.9264,2.9298,2.9306,2.9313,0,0,0,0,0,2.882,2.8876,2.887,2.8883,2.895,2.9003,2.9011,2.9015,2.8992,2.902,2.9034,2.9022,2.9127,2.9098,2.9111,2.9147,2.9253,2.9259,2.9264,2.9294,2.9305,2.9313,0,0,0,0,0,0,2.8848,2.888,2.8873,2.8942,2.897,2.8999,2.9034,2.9026,2.9061,2.9056,2.906,2.9068,2.9129,2.9145,2.9112,2.9218,2.9187,2.9195,2.9205,2.9216,2.9223,2.9217,2.9083,0,0,0,0,0,2.8863,2.8903,2.8929,2.8987,2.9001,2.9015,2.9039,2.9039,2.9068,2.908,2.9099,2.9127,2.9166,2.9192,2.923,2.9301,2.9307,2.9332,2.934,2.9346,2.9352,2.939,2.94,2.9284,2.9284,2.9284,0,0,2.8892,2.8915,2.894,2.8993,2.9015,2.9056,2.9025,2.9071,2.9101,2.9086,2.9144,2.9159,2.9191,2.9257,2.9286,2.9271,2.9386,2.9353,2.9358,2.9361,2.9396,2.9407,2.9417,2.9287,2.9287,2.9286,0,0,2.8967,2.8989,2.9039,2.9061,2.9094,2.9103,2.9115,2.9146,2.9155,2.9213,2.9203,2.9239,2.9307,2.933,2.935,2.9434,2.9424,2.9447,2.9487,2.9523,2.9532,2.954,2.9568,2.9579,2.9453,2.9453,2.9453,0,2.9,2.9062,2.9066,2.9112,2.9135,2.9124,2.9174,2.9195,2.9239,2.9255,2.9238,2.9322,2.9343,2.9413,2.9433,2.9451,2.9464,2.9442,2.9531,2.9539,2.9546,2.9573,2.9584,2.9456,2.9455,2.9455,2.9455,0,2.91,2.9143,2.9179,2.9221,2.9249,2.9297,2.9307,2.9335,2.9333,2.9344,2.9402,2.9427,2.9469,2.9486,2.9485,2.9556,2.9545,2.953,2.9498,2.956,2.9585,2.9596,2.9459,2.9458,2.9458,2.9457,0,0,2.9193,2.9237,2.925,2.9268,2.9304,2.9337,2.9385,2.9425,2.9448,2.9479,2.9518,2.9575,2.9561,2.9584,2.9586,2.9618,2.9681,2.9598,2.9599,2.9611,2.9758,2.9768,2.978,2.9675,2.9677,2.9678,2.9755,0,2.927,2.9353,2.9357,2.9432,2.9471,2.9461,2.9502,2.9529,2.954,2.9575,2.9588,2.9628,2.9607,2.962,2.9652,2.9666,2.971,2.9661,2.971,2.9711,2.97,2.9793,2.9804,2.9875,2.9765,2.9766,2.9768,0,2.937,2.9403,2.9482,2.9511,2.9527,2.9564,2.9601,2.9635,2.9664,2.9671,2.9697,2.9694,2.9742,2.971,2.9775,2.9742,2.9762,2.9773,2.9775,2.9778,2.9742,2.9797,2.9898,2.9908,2.9784,2.9782,2.9781,0,2.9428,2.9492,2.9547,2.9564,2.96,2.9625,2.9642,2.9669,2.9693,2.9726,2.9741,2.9779,2.98,2.9829,2.9836,2.9813,2.9901,2.987,2.9907,2.9907,2.9924,2.9923,3.0028,2.9941,2.9941,2.9941,2.994,0,2.9511,2.9559,2.9574,2.9607,2.9661,2.9666,2.9718,2.9733,2.9757,2.9793,2.9788,2.9822,2.983,2.9866,2.9872,2.9924,2.9934,2.994,2.9941,2.9939,2.9938,2.9951,2.9946,2.9943,2.9943,2.9942,2.9942,0,2.9584,2.9596,2.9655,2.9684,2.9693,2.973,2.9755,2.9787,2.9798,2.9844,2.9855,2.9872,2.9914,2.9924,2.9974,2.9978,3.0039,3.0037,3.0029,3.0028,3.0063,3.0059,3.0179,3.0194,3.0099,3.01,3.0101,0,2.9636,2.9672,2.9705,2.9729,2.9746,2.9785,2.9809,2.9816,2.9841,2.9877,2.9904,2.9945,2.9978,3.0044,3.0061,3.0099,3.0096,3.0135,3.0101,3.0098,3.0094,3.0091,3.0094,3.0141,3.0142,3.0143,3.0143,0,2.9725,2.9729,2.9764,2.9801,2.983,2.986,2.9888,2.9908,2.9919,2.9947,2.9989,3.0015,3.0065,3.0105,3.0143,3.016,3.0153,3.0154,3.0164,3.0162,3.0155,3.0157,3.0044,3.0151,3.015,3.015,3.0149,3.0149,2.9787,2.9819,2.9847,2.9886,2.9908,2.9934,2.9966,2.9981,3.0016,3.0057,3.0059,3.0104,3.0133,3.0183,3.0202,3.0237,3.0225,3.024,3.0243,3.0247,3.0248,3.0152,3.0244,3.0244,3.0244,3.0244,3.0244,0,2.9875,2.9892,2.9928,2.9968,2.9998,2.999,3.0021,3.0047,3.0087,3.0114,3.0146,3.0194,3.0233,3.0253,3.0291,3.0315,3.0313,3.0325,3.0322,3.0326,3.0258,3.0245,3.0326,3.0326,3.0326,3.0326,3.0326,3.0326,2.9924,2.9976,2.9983,3.0046,3.0064,3.0108,3.0126,3.015,3.0171,3.0225,3.0257,3.027,3.0294,3.0334,3.0369,3.0374,3.0387,3.04,3.0404,3.0339,3.0331,3.0323,3.031,3.0404,3.0404,3.0468,3.0469,3.0469]},{"header":{"parameterUnit":"m.s-1","parameterCategory":1,"la1":30.2991,"la2":30.254,"lo1":-89.0895,"lo2":-89.0444,"dy":0.0017,"dx":0.0017,"nx":28,"ny":28,"refTime":"2024-05-08T21:00:00:Z","depth":0,"parameterNumber":3,"parameterNumberName":"V-component_of_WINDS"},"data":[0,0,0,0,0,0,0,0,0,0,0,0,0,0,0,0,0,0,0,0,0,0,0,0,0,0,0,0,0,0,0,0,0,0,0,0,0,0,0,0,0,0,0,0,0,0,0,0,0,0,0,0,0,0,0,0,0,0,2.0332,2.0333,0,2.0421,2.0422,2.0423,2.0438,2.0438,2.0437,2.0436,2.0526,2.0529,2.0532,0,0,0,0,0,0,0,0,0,0,0,0,0,2.0174,2.0177,2.0332,2.0333,2.0334,2.0421,2.0422,2.0423,2.0439,2.0438,2.0437,2.0436,2.0525,2.0528,2.0532,0,0,0,0,0,0,0,0,0,0,0,0,0,2.0251,2.0178,2.0332,2.0352,2.0355,2.0421,2.0422,2.0424,2.0439,2.0438,2.0437,2.0435,2.0524,2.0528,2.0533,2.0583,0,0,2.0547,2.0549,0,0,0,0,0,0,0,0,2.0247,2.0257,2.0348,2.0351,2.0354,2.0418,2.0399,2.0477,2.0439,2.0407,2.0436,2.0435,2.0491,2.0498,2.0517,2.0588,2.0591,2.0547,2.055,2.0552,2.0553,0,0,0,0,0,0,0,2.0241,2.0253,2.0367,2.035,2.0353,2.0357,2.0366,2.0414,2.0454,2.041,2.0411,2.0421,2.0492,2.0512,2.0519,2.0593,2.0547,2.0551,2.0554,2.0556,2.071,2.0711,0,0,0,0,0,0,2.0233,2.0248,2.0364,2.037,2.0297,2.0361,2.0371,2.0398,2.0453,2.0461,2.0422,2.0422,2.0505,2.0514,2.0522,2.0586,2.0552,2.0556,2.0559,2.0708,2.071,2.0711,0,0,0,0,0,0,2.0229,2.0243,2.0361,2.031,2.0325,2.0364,2.0395,2.0401,2.0421,2.0463,2.047,2.0436,2.0505,2.0516,2.0568,2.0589,2.0558,2.0562,2.0707,2.0709,2.0711,2.0712,0,0,0,0,0,0,2.0224,2.0241,2.0261,2.031,2.0328,2.0406,2.0396,2.0403,2.0429,2.0429,2.0478,2.0485,2.0504,2.0561,2.0573,2.0595,2.0566,2.0705,2.0708,2.071,2.0711,2.0714,2.0717,0,0,0,0,0,2.0219,2.0258,2.0262,2.0276,2.0354,2.0407,2.0417,2.044,2.0431,2.0451,2.0478,2.0483,2.0585,2.0566,2.058,2.0603,2.0704,2.0707,2.071,2.0709,2.0714,2.0717,0,0,0,0,0,0,2.021,2.0265,2.027,2.0326,2.0362,2.0409,2.0436,2.0443,2.0482,2.048,2.0506,2.0517,2.0568,2.0591,2.057,2.0655,2.0644,2.0649,2.0639,2.0643,2.0646,2.064,2.057,0,0,0,0,0,2.0215,2.0254,2.03,2.0345,2.0362,2.0396,2.042,2.0434,2.0472,2.0487,2.0518,2.0554,2.0594,2.062,2.0659,2.0714,2.0725,2.0737,2.074,2.0742,2.0747,2.0778,2.0784,2.0721,2.0721,2.0721,0,0,2.0225,2.026,2.0283,2.0344,2.0373,2.0413,2.0408,2.0451,2.048,2.0493,2.0545,2.0569,2.061,2.0664,2.069,2.0685,2.0767,2.0746,2.0748,2.0751,2.0782,2.0788,2.0793,2.0723,2.0723,2.0722,0,0,2.0264,2.0294,2.0335,2.0365,2.0409,2.0431,2.0441,2.0488,2.0504,2.0556,2.0567,2.0602,2.0671,2.07,2.0724,2.0774,2.078,2.0786,2.0803,2.0833,2.0838,2.0843,2.0861,2.0867,2.0791,2.0791,2.0791,0,2.027,2.0331,2.0355,2.0397,2.0424,2.0438,2.0479,2.0507,2.0561,2.0579,2.0573,2.066,2.0689,2.075,2.0762,2.0781,2.0793,2.0781,2.0836,2.084,2.0845,2.0862,2.0869,2.0791,2.0791,2.0791,2.0791,0,2.0337,2.0379,2.0407,2.046,2.049,2.0531,2.0561,2.0588,2.06,2.0623,2.0675,2.0711,2.0758,2.0773,2.0785,2.0836,2.0832,2.083,2.0819,2.0851,2.0868,2.0875,2.0792,2.0792,2.0791,2.0791,0,0,2.0373,2.0439,2.0449,2.0474,2.0524,2.0557,2.0599,2.0645,2.0668,2.0705,2.0741,2.0798,2.0797,2.0824,2.084,2.0866,2.0903,2.0861,2.0863,2.0868,2.0962,2.0963,2.0971,2.0908,2.0909,2.091,2.0959,0,2.0418,2.0494,2.0517,2.0581,2.062,2.0634,2.067,2.0705,2.0727,2.0763,2.0787,2.0828,2.0823,2.084,2.0866,2.0893,2.0923,2.089,2.0941,2.0942,2.093,2.0979,2.0981,2.1025,2.0966,2.0967,2.0968,0,2.048,2.0519,2.0587,2.0633,2.065,2.0683,2.0727,2.0761,2.0801,2.0815,2.0845,2.0858,2.0902,2.0889,2.095,2.0927,2.0949,2.0965,2.0967,2.0973,2.0957,2.0987,2.104,2.1046,2.0978,2.0977,2.0976,0,2.05,2.0569,2.0619,2.0639,2.0694,2.0717,2.074,2.0778,2.0805,2.0843,2.0861,2.0904,2.0927,2.096,2.0984,2.0972,2.1043,2.1031,2.1056,2.1055,2.107,2.1069,2.1128,2.1084,2.1084,2.1084,2.1084,0,2.0547,2.0588,2.0629,2.0659,2.0705,2.0731,2.0776,2.08,2.0834,2.0869,2.0884,2.0916,2.0946,2.0983,2.1002,2.1049,2.106,2.1072,2.1077,2.1071,2.107,2.1086,2.1084,2.1086,2.1085,2.1085,2.1085,0,2.0577,2.0606,2.0661,2.0708,2.0721,2.0753,2.0793,2.0823,2.0846,2.089,2.0902,2.0938,2.0982,2.1009,2.1064,2.1077,2.1129,2.1133,2.1116,2.1119,2.1142,2.114,2.1214,2.1225,2.1173,2.1174,2.1174,0,2.0606,2.0638,2.0688,2.0714,2.0738,2.0777,2.0805,2.0831,2.0859,2.0906,2.093,2.0975,2.1013,2.1082,2.1112,2.1155,2.1159,2.1182,2.1166,2.1159,2.116,2.1158,2.1161,2.1185,2.1186,2.1186,2.1186,0,2.0653,2.0666,2.0705,2.0749,2.0782,2.0818,2.0853,2.0873,2.0905,2.0935,2.0981,2.101,2.1067,2.1111,2.1156,2.118,2.1189,2.1191,2.1199,2.1194,2.1183,2.119,2.1124,2.1189,2.1189,2.1189,2.1189,2.1189,2.0684,2.0713,2.0753,2.0796,2.0826,2.086,2.089,2.0917,2.0956,2.1004,2.1017,2.1065,2.1103,2.1165,2.119,2.1227,2.1224,2.1236,2.1239,2.1241,2.1242,2.1177,2.1235,2.1235,2.1235,2.1235,2.1235,0,2.0732,2.0759,2.0799,2.0849,2.0883,2.0888,2.0928,2.0956,2.0998,2.1033,2.107,2.1122,2.1165,2.1199,2.1244,2.1267,2.1272,2.1278,2.1276,2.1282,2.1242,2.1231,2.1273,2.1273,2.1273,2.1273,2.1273,2.1273,2.0762,2.0812,2.0829,2.0894,2.092,2.0968,2.099,2.1021,2.1049,2.1107,2.1143,2.1165,2.12,2.1247,2.1287,2.1296,2.1312,2.1317,2.1326,2.1289,2.1284,2.1281,2.127,2.132,2.132,2.1363,2.1364,2.1364]}]]